Location: Cuiry
(49.3858°N, 3.7708°E)
Time: 06:06:17
(UTC+00:00)

NOSS 3-4 (C) - Pass Details

Date: 12 January 2026
Orbit: 773 x 1438 km, 63.4° (Epoch: 26 December)

Event Time Altitude Azimuth Distance (km) Brightness Sun altitude
Rises 19:21:52 0° 235° (SW) 3,254 7.0 -30.5°
Reaches altitude 10° 19:24:13 10° 239° (WSW) 2,354 6.2 -30.8°
Enters shadow 19:29:03 57° 297° (WNW) 979 3.6 -31.6°
